This demonstration page uses our WeatherBlox Daily Observations layout. Learn more.

Left ArrowRight Arrow

34.74481, -87.66753

Hourly Observations for May 15, 2020

Temp ( °F °C ) Dew Point ( °F °C ) Humidity (%) Winds ( mph kmh ) Pressure ( in mb ) Visibility ( mi km ) Precip ( " mm )
12:53 am 00:53 Mostly Clear 71 21.7 58 14.4 63 63 SSE 6 9 30.01 1016 10 16 0.00 0.00
1:53 am 01:53 Clear 71 21.7 57 13.9 61 61 SSE 7 11 30.00 1016 10 16 0.00 0.00
2:53 am 02:53 Clear 71 21.7 57 13.9 61 61 S 8 13 29.99 1016 10 16 0.00 0.00
3:53 am 03:53 Clear 71 21.7 58 14.4 63 63 S 7 11 30.00 1016 10 16 0.00 0.00
4:53 am 04:53 Mostly Cloudy 69 20.6 59 15 70 70 SSE 5 7 30.00 1016 10 16 0.00 0.00
5:53 am 05:53 Mostly Sunny 68 20 59 15 73 73 SE 7 11 30.01 1016 10 16 0.00 0.00
6:53 am 06:53 Sunny 69 20.6 59 15 70 70 ESE 5 7 30.05 1018 10 16 0.00 0.00
7:53 am 07:53 Sunny 72 22.2 60 15.6 66 66 SSE 12 19 30.05 1018 10 16 0.00 0.00
8:53 am 08:53 Mostly Cloudy 75 23.9 61 16.1 62 62 SSE 12 19 30.05 1018 10 16 0.00 0.00
9:53 am 09:53 Cloudy 76 24.4 61 16.1 60 60 SSW 13 20 30.06 1018 10 16 0.00 0.00
10:53 am 10:53 Cloudy 77 25 61 16.1 58 58 SSW 16 26 30.05 1018 10 16 0.00 0.00
11:53 am 11:53 Mostly Cloudy 79 26.1 62 16.7 56 56 SSW 17 28 30.03 1017 10 16 0.00 0.00
12:53 pm 12:53 Mostly Cloudy 80 26.7 62 16.7 54 54 undefined N/A 30.01 1016 10 16 0.00 0.00
1:53 pm 13:53 Mostly Cloudy 82 27.8 63 17.2 53 53 SW 10 17 30.00 1016 10 16 0.00 0.00
2:53 pm 14:53 Partly Cloudy 82 27.8 63 17.2 53 53 SSW 10 17 29.99 1016 10 16 0.00 0.00
3:19 pm 15:19 Cloudy with Heavy Rain 76 24.4 65 18.3 69 69 VRB 6 9 30.00 1016 2 3 0.17 4.32
3:37 pm 15:37 Cloudy with Heavy Rain 72 22.2 65 18.3 79 79 WNW 6 9 29.99 1016 3 4 0.40 10.16
3:45 pm 15:45 Cloudy with Rain 72 22.2 67 19.4 84 84 VRB 5 7 29.99 1016 3 5 0.47 11.94
3:53 pm 15:53 Cloudy with Light Rain 73 22.8 67 19.4 81 81 Calm 29.98 1015 2 3 0.51 12.95
4:01 pm 16:01 Cloudy 74 23.3 68 20 82 82 NW 3 6 29.98 1015 10 16 0.00 0.00
4:53 pm 16:53 Mostly Cloudy 77 25 68 20 74 74 W 6 9 29.98 1015 10 16 0.00 0.00
5:53 pm 17:53 Cloudy with Light Rain 75 23.9 69 20.6 82 82 S 3 6 29.97 1015 10 16 0.01 0.25
6:53 pm 18:53 Partly Cloudy 75 23.9 70 21.1 84 84 E 3 6 29.95 1014 10 16 0.01 0.25
7:53 pm 19:53 Clear 73 22.8 70 21.1 90 90 SSE 5 7 29.94 1014 10 16 0.00 0.00
8:53 pm 20:53 Clear 71 21.7 69 20.6 94 94 Calm 29.96 1015 7 11 0.00 0.00
9:53 pm 21:53 Cloudy 72 22.2 69 20.6 91 91 Calm 29.98 1015 8 13 0.00 0.00
10:53 pm 22:53 Mostly Clear 70 21.1 68 20 93 93 NE 3 6 29.97 1015 7 11 0.00 0.00
11:17 pm 23:17 Clear with Mist and Fog 69 20.6 67 19.4 93 93 Calm 29.98 1015 2 3 0.00 0.00
11:23 pm 23:23 Mostly Cloudy with Mist and Fog 69 20.6 67 19.4 93 93 Calm 29.98 1015 1 1 0.00 0.00
11:33 pm 23:33 Mostly Clear with Mist and Fog 69 20.6 67 19.4 93 93 Calm 29.98 1015 1 2 0.00 0.00
11:53 pm 23:53 Mostly Cloudy with Mist and Fog 68 20 67 19.4 96 96 Calm 29.97 1015 1 1 0.00 0.00

Powered by AerisWeather